QPF
0.02 0.00 0.00 0.00 0.00 0.01 0.01 0.01 0.01 0.01 0.00 0.00 0.00 0.00 0.00 0.00 0.00 0.00 0.00 0.00 0.00 0.00 0.00 0.00 0.00 0.00 0.00 0.00 0.00 0.00 0.00 0.00 0.00 0.00 0.00 0.00 0.00 0.00 0.00 0.01 0.04 0.03 0.00
0.01 0.00 0.00 0.00 0.00 0.01 0.01 0.01 0.01 0.01 0.00 0.00 0.00 0.00 0.00 0.00 0.00 0.00 0.00 0.01 0.01 0.01 0.00 0.01 0.01 0.00 0.00 0.00 0.00 0.00 0.00 0.00 0.00 0.00 0.00 0.00 0.00 0.00 0.00 0.02 0.07 0.04 0.00
0.01 0.00 0.00 0.00 0.00 0.01 0.01 0.02 0.02 0.01 0.01 0.01 0.00 0.00 0.00 0.00 0.00 0.00 0.00 0.01 0.01 0.01 0.01 0.01 0.00 0.00 0.00 0.00 0.00 0.00 0.00 0.00 0.00 0.02 0.05 0.04 0.01 0.00 0.00 0.01 0.03 0.01 0.00
0.01 0.01 0.00 0.00 0.00 0.01 0.01 0.02 0.02 0.02 0.02 0.02 0.01 0.01 0.00 0.00 0.00 0.00 0.00 0.01 0.01 0.01 0.01 0.01 0.01 0.00 0.00 0.00 0.00 0.00 0.00 0.00 0.01 0.03 0.10 0.06 0.03 0.01 0.00 0.00 0.00 0.00 0.00
0.01 0.02 0.01 0.00 0.00 0.01 0.01 0.02 0.03 0.02 0.03 0.02 0.02 0.01 0.01 0.00 0.00 0.00 0.00 0.01 0.01 0.01 0.00 0.00 0.00 0.01 0.01 0.00 0.00 0.00 0.00 0.01 0.01 0.03 0.07 0.06 0.12 0.06 0.01 0.01 0.00 0.00 0.00
0.02 0.02 0.01 0.01 0.01 0.01 0.01 0.02 0.03 0.03 0.04 0.02 0.02 0.02 0.01 0.01 0.01 0.01 0.01 0.01 0.01 0.01 0.00 0.00 0.00 0.01 0.01 0.01 0.01 0.00 0.00 0.01 0.02 0.03 0.03 0.04 0.12 0.08 0.02 0.00 0.01 0.01 0.01
0.03 0.02 0.02 0.01 0.01 0.02 0.02 0.03 0.04 0.04 0.03 0.03 0.03 0.02 0.02 0.01 0.01 0.01 0.01 0.01 0.01 0.01 0.01 0.00 0.01 0.01 0.01 0.01 0.01 0.00 0.00 0.01 0.03 0.06 0.04 0.05 0.09 0.06 0.02 0.01 0.01 0.01 0.01
0.04 0.03 0.02 0.02 0.02 0.02 0.03 0.03 0.03 0.04 0.04 0.04 0.04 0.02 0.01 0.01 0.02 0.02 0.02 0.02 0.02 0.01 0.01 0.01 0.01 0.01 0.01 0.01 0.01 0.01 0.01 0.01 0.02 0.02 0.02 0.05 0.06 0.04 0.02 0.02 0.01 0.01 0.02
0.07 0.06 0.04 0.03 0.04 0.04 0.05 0.05 0.04 0.04 0.04 0.03 0.03 0.03 0.02 0.02 0.02 0.02 0.02 0.02 0.03 0.03 0.02 0.02 0.01 0.01 0.01 0.01 0.01 0.01 0.01 0.01 0.02 0.01 0.02 0.02 0.02 0.02 0.03 0.04 0.04 0.03 0.04
0.11 0.12 0.08 0.07 0.07 0.06 0.05 0.06 0.05 0.05 0.06 0.05 0.04 0.03 0.03 0.03 0.03 0.03 0.03 0.03 0.03 0.03 0.03 0.02 0.02 0.01 0.01 0.01 0.01 0.01 0.01 0.01 0.01 0.02 0.03 0.03 0.02 0.03 0.04 0.05 0.05 0.05 0.05
0.07 0.12 0.18 0.17 0.12 0.11 0.11 0.09 0.07 0.06 0.06 0.07 0.07 0.05 0.05 0.08 0.13 0.14 0.09 0.07 0.04 0.03 0.03 0.03 0.03 0.02 0.02 0.01 0.01 0.01 0.01 0.01 0.02 0.07 0.09 0.06 0.03 0.03 0.03 0.04 0.04 0.05 0.05
0.09 0.10 0.14 0.26 0.27 0.16 0.20 0.21 0.18 0.13 0.10 0.11 0.10 0.08 0.09 0.13 0.16 0.16 0.15 0.09 0.05 0.04 0.04 0.04 0.04 0.04 0.04 0.05 0.09 0.08 0.05 0.04 0.05 0.10 0.15 0.11 0.08 0.05 0.04 0.03 0.03 0.05 0.06
0.09 0.09 0.10 0.17 0.27 0.22 0.21 0.25 0.27 0.21 0.18 0.15 0.13 0.12 0.14 0.15 0.15 0.16 0.17 0.15 0.12 0.10 0.14 0.16 0.12 0.09 0.11 0.12 0.13 0.15 0.12 0.09 0.08 0.07 0.12 0.10 0.09 0.07 0.06 0.06 0.05 0.06 0.06
0.08 0.11 0.12 0.12 0.16 0.17 0.17 0.20 0.19 0.18 0.22 0.22 0.17 0.14 0.15 0.17 0.18 0.18 0.20 0.20 0.20 0.20 0.20 0.20 0.20 0.16 0.13 0.12 0.10 0.08 0.06 0.05 0.05 0.05 0.08 0.07 0.07 0.05 0.06 0.06 0.07 0.08 0.08
0.07 0.09 0.10 0.10 0.12 0.13 0.14 0.16 0.16 0.19 0.23 0.22 0.19 0.18 0.15 0.15 0.16 0.15 0.18 0.17 0.15 0.15 0.17 0.18 0.14 0.12 0.12 0.12 0.09 0.09 0.07 0.07 0.07 0.07 0.08 0.08 0.06 0.05 0.06 0.08 0.09 0.10 0.10
0.05 0.06 0.09 0.10 0.09 0.09 0.11 0.13 0.15 0.17 0.19 0.18 0.20 0.18 0.14 0.13 0.14 0.13 0.14 0.13 0.12 0.12 0.13 0.13 0.12 0.12 0.12 0.12 0.09 0.08 0.06 0.06 0.07 0.07 0.09 0.10 0.08 0.05 0.06 0.09 0.11 0.12 0.15
0.05 0.04 0.05 0.07 0.08 0.07 0.09 0.10 0.12 0.15 0.16 0.17 0.19 0.18 0.14 0.11 0.12 0.13 0.17 0.15 0.14 0.14 0.14 0.12 0.13 0.12 0.12 0.11 0.09 0.10 0.10 0.07 0.07 0.07 0.07 0.09 0.10 0.07 0.06 0.08 0.09 0.11 0.12
0.04 0.04 0.04 0.04 0.06 0.06 0.07 0.09 0.10 0.11 0.12 0.14 0.18 0.21 0.19 0.14 0.13 0.11 0.10 0.11 0.11 0.12 0.14 0.14 0.14 0.11 0.11 0.10 0.09 0.09 0.07 0.07 0.06 0.07 0.07 0.07 0.09 0.10 0.11 0.08 0.06 0.08 0.09
0.03 0.03 0.03 0.03 0.03 0.04 0.07 0.09 0.09 0.08 0.08 0.09 0.12 0.11 0.11 0.10 0.09 0.08 0.08 0.09 0.09 0.10 0.11 0.13 0.14 0.11 0.11 0.10 0.06 0.05 0.04 0.05 0.06 0.07 0.08 0.06 0.09 0.11 0.12 0.11 0.07 0.07 0.08
0.03 0.02 0.02 0.02 0.02 0.03 0.05 0.08 0.09 0.07 0.07 0.07 0.07 0.06 0.05 0.05 0.04 0.06 0.08 0.11 0.12 0.13 0.12 0.13 0.12 0.11 0.10 0.09 0.05 0.06 0.05 0.04 0.05 0.07 0.08 0.09 0.09 0.08 0.10 0.12 0.13 0.10 0.09
0.03 0.01 0.01 0.02 0.02 0.03 0.04 0.06 0.06 0.05 0.05 0.06 0.05 0.04 0.04 0.04 0.04 0.05 0.06 0.09 0.10 0.12 0.12 0.11 0.09 0.10 0.10 0.08 0.07 0.06 0.05 0.04 0.06 0.08 0.09 0.12 0.10 0.07 0.09 0.12 0.14 0.13 0.11
0.02 0.01 0.01 0.02 0.02 0.03 0.03 0.05 0.05 0.03 0.04 0.04 0.04 0.05 0.05 0.04 0.05 0.04 0.05 0.06 0.07 0.09 0.08 0.07 0.08 0.09 0.09 0.08 0.08 0.08 0.08 0.09 0.08 0.09 0.10 0.09 0.08 0.08 0.08 0.07 0.09 0.11 0.13
0.02 0.01 0.01 0.02 0.02 0.02 0.04 0.04 0.04 0.04 0.03 0.04 0.05 0.06 0.05 0.05 0.05 0.05 0.04 0.05 0.05 0.05 0.06 0.06 0.08 0.09 0.08 0.09 0.09 0.10 0.10 0.11 0.10 0.10 0.09 0.07 0.06 0.07 0.05 0.04 0.05 0.07 0.09
0.02 0.01 0.02 0.04 0.03 0.03 0.05 0.04 0.04 0.05 0.05 0.05 0.06 0.05 0.05 0.04 0.04 0.04 0.04 0.05 0.05 0.05 0.05 0.05 0.06 0.08 0.09 0.09 0.09 0.10 0.12 0.13 0.12 0.11 0.10 0.08 0.06 0.05 0.05 0.05 0.06 0.06 0.08
0.02 0.01 0.03 0.05 0.04 0.04 0.06 0.07 0.05 0.05 0.05 0.06 0.05 0.06 0.06 0.04 0.04 0.04 0.05 0.05 0.06 0.06 0.06 0.05 0.07 0.08 0.08 0.09 0.10 0.10 0.11 0.14 0.15 0.15 0.13 0.10 0.07 0.05 0.05 0.06 0.06 0.07 0.08
0.02 0.02 0.03 0.05 0.05 0.04 0.03 0.04 0.05 0.05 0.05 0.05 0.05 0.06 0.06 0.05 0.05 0.04 0.03 0.04 0.05 0.06 0.07 0.08 0.08 0.08 0.07 0.07 0.08 0.10 0.10 0.10 0.12 0.13 0.13 0.11 0.07 0.06 0.04 0.05 0.06 0.06 0.07
MSLP
1010.53 1010.57 1010.87 1011.41 1012.05 1012.70 1013.26 1013.66 1013.89 1014.00 1014.04 1014.09 1014.22 1014.45 1014.77 1015.14 1015.51 1015.83 1016.06 1016.21 1016.29 1016.33 1016.38 1016.47 1016.60 1016.76 1016.93 1017.08 1017.18 1017.22 1017.22 1017.19 1017.18 1017.21 1017.31 1017.48 1017.69 1017.93 1018.17 1018.38 1018.55 1018.67 1018.78
1010.53 1010.68 1011.09 1011.70 1012.40 1013.06 1013.59 1013.95 1014.14 1014.21 1014.24 1014.31 1014.49 1014.79 1015.18 1015.61 1016.01 1016.33 1016.54 1016.64 1016.66 1016.65 1016.66 1016.72 1016.83 1016.99 1017.16 1017.30 1017.38 1017.40 1017.37 1017.32 1017.29 1017.33 1017.44 1017.63 1017.88 1018.16 1018.42 1018.65 1018.83 1018.96 1019.06
1010.47 1010.73 1011.25 1011.95 1012.70 1013.39 1013.92 1014.25 1014.42 1014.48 1014.52 1014.63 1014.85 1015.18 1015.60 1016.04 1016.43 1016.71 1016.86 1016.90 1016.87 1016.83 1016.82 1016.88 1017.01 1017.18 1017.35 1017.49 1017.56 1017.55 1017.49 1017.42 1017.38 1017.41 1017.54 1017.75 1018.03 1018.34 1018.64 1018.89 1019.09 1019.23 1019.34
1010.38 1010.76 1011.38 1012.16 1012.97 1013.68 1014.22 1014.56 1014.73 1014.80 1014.87 1015.01 1015.25 1015.60 1016.01 1016.42 1016.75 1016.97 1017.05 1017.03 1016.96 1016.91 1016.91 1017.00 1017.16 1017.36 1017.55 1017.69 1017.73 1017.70 1017.61 1017.52 1017.46 1017.49 1017.62 1017.86 1018.16 1018.49 1018.81 1019.08 1019.30 1019.46 1019.59
1010.32 1010.81 1011.52 1012.36 1013.21 1013.94 1014.49 1014.84 1015.03 1015.13 1015.23 1015.40 1015.66 1016.01 1016.39 1016.74 1017.00 1017.13 1017.15 1017.08 1017.00 1016.95 1016.99 1017.12 1017.33 1017.57 1017.77 1017.91 1017.94 1017.88 1017.76 1017.63 1017.56 1017.58 1017.71 1017.95 1018.27 1018.61 1018.94 1019.22 1019.46 1019.64 1019.80
1010.34 1010.92 1011.70 1012.58 1013.43 1014.16 1014.71 1015.06 1015.28 1015.41 1015.55 1015.75 1016.03 1016.37 1016.71 1017.00 1017.18 1017.24 1017.20 1017.11 1017.02 1017.01 1017.09 1017.28 1017.53 1017.81 1018.03 1018.15 1018.16 1018.06 1017.91 1017.75 1017.66 1017.67 1017.80 1018.04 1018.35 1018.69 1019.02 1019.31 1019.56 1019.76 1019.95
1010.51 1011.14 1011.95 1012.83 1013.65 1014.35 1014.87 1015.22 1015.44 1015.60 1015.78 1016.01 1016.31 1016.64 1016.94 1017.18 1017.30 1017.31 1017.24 1017.13 1017.07 1017.09 1017.23 1017.47 1017.77 1018.06 1018.28 1018.38 1018.35 1018.22 1018.03 1017.85 1017.74 1017.74 1017.87 1018.10 1018.41 1018.74 1019.06 1019.34 1019.59 1019.82 1020.03
1010.84 1011.50 1012.29 1013.12 1013.88 1014.51 1014.97 1015.28 1015.50 1015.68 1015.89 1016.15 1016.46 1016.79 1017.08 1017.28 1017.37 1017.35 1017.26 1017.17 1017.14 1017.21 1017.39 1017.66 1017.98 1018.27 1018.46 1018.53 1018.46 1018.29 1018.07 1017.88 1017.76 1017.76 1017.88 1018.11 1018.41 1018.73 1019.05 1019.33 1019.57 1019.81 1020.04
1011.33 1011.97 1012.71 1013.46 1014.12 1014.64 1015.02 1015.28 1015.47 1015.65 1015.88 1016.17 1016.50 1016.84 1017.12 1017.30 1017.38 1017.35 1017.28 1017.21 1017.21 1017.32 1017.53 1017.81 1018.12 1018.38 1018.53 1018.55 1018.44 1018.23 1017.99 1017.79 1017.67 1017.69 1017.82 1018.06 1018.37 1018.69 1018.99 1019.27 1019.51 1019.75 1019.99
1011.96 1012.56 1013.21 1013.84 1014.37 1014.77 1015.04 1015.23 1015.39 1015.57 1015.81 1016.12 1016.47 1016.81 1017.09 1017.27 1017.35 1017.34 1017.28 1017.24 1017.27 1017.39 1017.61 1017.88 1018.15 1018.35 1018.45 1018.41 1018.25 1018.01 1017.77 1017.57 1017.48 1017.52 1017.69 1017.95 1018.26 1018.59 1018.90 1019.18 1019.43 1019.67 1019.91
1012.70 1013.23 1013.77 1014.26 1014.65 1014.92 1015.09 1015.20 1015.32 1015.49 1015.73 1016.05 1016.41 1016.76 1017.05 1017.23 1017.31 1017.32 1017.28 1017.26 1017.30 1017.42 1017.62 1017.85 1018.06 1018.19 1018.21 1018.12 1017.92 1017.66 1017.42 1017.25 1017.20 1017.28 1017.49 1017.78 1018.12 1018.47 1018.79 1019.08 1019.33 1019.57 1019.82
1013.52 1013.96 1014.38 1014.73 1014.98 1015.13 1015.20 1015.25 1015.33 1015.49 1015.74 1016.06 1016.42 1016.77 1017.04 1017.23 1017.31 1017.32 1017.30 1017.29 1017.33 1017.43 1017.58 1017.75 1017.88 1017.94 1017.89 1017.73 1017.50 1017.24 1017.02 1016.89 1016.88 1017.00 1017.25 1017.58 1017.94 1018.31 1018.65 1018.96 1019.23 1019.48 1019.72
1014.39 1014.72 1015.02 1015.24 1015.36 1015.41 1015.41 1015.42 1015.49 1015.64 1015.89 1016.20 1016.55 1016.88 1017.13 1017.30 1017.38 1017.39 1017.37 1017.36 1017.38 1017.45 1017.54 1017.63 1017.68 1017.65 1017.53 1017.33 1017.08 1016.83 1016.64 1016.54 1016.57 1016.74 1017.01 1017.36 1017.75 1018.13 1018.49 1018.81 1019.10 1019.36 1019.62
1015.26 1015.49 1015.67 1015.78 1015.81 1015.78 1015.74 1015.74 1015.80 1015.96 1016.20 1016.51 1016.83 1017.12 1017.35 1017.49 1017.55 1017.54 1017.51 1017.49 1017.49 1017.51 1017.54 1017.55 1017.52 1017.41 1017.23 1017.00 1016.74 1016.50 1016.33 1016.27 1016.34 1016.52 1016.81 1017.16 1017.54 1017.92 1018.28 1018.61 1018.92 1019.20 1019.47
1016.11 1016.24 1016.32 1016.33 1016.29 1016.23 1016.18 1016.19 1016.27 1016.44 1016.69 1016.97 1017.25 1017.49 1017.67 1017.76 1017.79 1017.77 1017.73 1017.68 1017.65 1017.63 1017.60 1017.54 1017.43 1017.26 1017.03 1016.77 1016.51 1016.30 1016.16 1016.12 1016.20 1016.38 1016.65 1016.97 1017.32 1017.67 1018.02 1018.35 1018.67 1018.98 1019.27
1016.90 1016.94 1016.93 1016.88 1016.80 1016.73 1016.71 1016.74 1016.86 1017.04 1017.28 1017.53 1017.76 1017.93 1018.05 1018.09 1018.08 1018.04 1017.97 1017.91 1017.86 1017.79 1017.71 1017.59 1017.42 1017.20 1016.94 1016.67 1016.42 1016.22 1016.11 1016.09 1016.16 1016.32 1016.54 1016.80 1017.09 1017.39 1017.70 1018.02 1018.34 1018.67 1018.99
1017.60 1017.57 1017.49 1017.39 1017.30 1017.25 1017.26 1017.34 1017.49 1017.69 1017.90 1018.11 1018.27 1018.37 1018.41 1018.40 1018.35 1018.28 1018.21 1018.13 1018.06 1017.97 1017.84 1017.67 1017.45 1017.20 1016.92 1016.65 1016.41 1016.24 1016.15 1016.13 1016.19 1016.30 1016.46 1016.65 1016.86 1017.10 1017.35 1017.64 1017.96 1018.29 1018.64
1018.20 1018.12 1017.99 1017.86 1017.77 1017.75 1017.80 1017.92 1018.10 1018.30 1018.49 1018.63 1018.71 1018.73 1018.69 1018.62 1018.53 1018.44 1018.36 1018.29 1018.20 1018.09 1017.94 1017.73 1017.48 1017.20 1016.91 1016.65 1016.44 1016.29 1016.22 1016.21 1016.25 1016.33 1016.42 1016.53 1016.66 1016.82 1017.01 1017.26 1017.56 1017.90 1018.25
1018.71 1018.59 1018.44 1018.29 1018.21 1018.21 1018.30 1018.45 1018.64 1018.83 1018.97 1019.04 1019.04 1018.96 1018.85 1018.71 1018.58 1018.48 1018.41 1018.33 1018.25 1018.13 1017.96 1017.73 1017.45 1017.15 1016.86 1016.62 1016.43 1016.32 1016.28 1016.28 1016.32 1016.36 1016.41 1016.45 1016.51 1016.60 1016.74 1016.95 1017.22 1017.55 1017.89
1019.17 1019.03 1018.85 1018.70 1018.62 1018.65 1018.75 1018.92 1019.11 1019.26 1019.34 1019.33 1019.23 1019.07 1018.87 1018.68 1018.53 1018.41 1018.34 1018.27 1018.20 1018.07 1017.89 1017.64 1017.34 1017.03 1016.75 1016.52 1016.37 1016.29 1016.28 1016.32 1016.37 1016.41 1016.43 1016.44 1016.45 1016.50 1016.60 1016.77 1017.01 1017.31 1017.62
1019.61 1019.45 1019.26 1019.11 1019.04 1019.07 1019.19 1019.35 1019.51 1019.62 1019.63 1019.53 1019.34 1019.09 1018.82 1018.58 1018.40 1018.27 1018.20 1018.14 1018.07 1017.94 1017.74 1017.48 1017.17 1016.85 1016.57 1016.36 1016.23 1016.20 1016.23 1016.31 1016.39 1016.45 1016.48 1016.49 1016.50 1016.53 1016.62 1016.77 1016.98 1017.24 1017.51
1020.07 1019.91 1019.72 1019.56 1019.48 1019.51 1019.62 1019.77 1019.89 1019.94 1019.88 1019.70 1019.43 1019.10 1018.77 1018.48 1018.27 1018.13 1018.06 1018.00 1017.93 1017.79 1017.58 1017.29 1016.96 1016.63 1016.35 1016.15 1016.05 1016.05 1016.13 1016.25 1016.38 1016.49 1016.56 1016.61 1016.65 1016.70 1016.80 1016.94 1017.14 1017.36 1017.57
1020.59 1020.43 1020.23 1020.06 1019.97 1019.99 1020.08 1020.19 1020.27 1020.27 1020.15 1019.90 1019.56 1019.17 1018.78 1018.46 1018.22 1018.07 1017.98 1017.92 1017.83 1017.68 1017.44 1017.13 1016.78 1016.43 1016.14 1015.93 1015.85 1015.87 1015.99 1016.16 1016.34 1016.51 1016.65 1016.76 1016.85 1016.96 1017.09 1017.26 1017.45 1017.64 1017.80
1021.15 1020.99 1020.79 1020.61 1020.51 1020.50 1020.56 1020.64 1020.68 1020.63 1020.46 1020.16 1019.77 1019.34 1018.92 1018.57 1018.31 1018.13 1018.03 1017.94 1017.83 1017.65 1017.38 1017.04 1016.65 1016.28 1015.96 1015.74 1015.65 1015.68 1015.81 1016.01 1016.24 1016.47 1016.69 1016.88 1017.05 1017.24 1017.43 1017.64 1017.85 1018.03 1018.14
1021.73 1021.58 1021.37 1021.18 1021.05 1021.02 1021.04 1021.09 1021.09 1021.01 1020.81 1020.49 1020.07 1019.62 1019.19 1018.81 1018.53 1018.33 1018.20 1018.08 1017.93 1017.70 1017.40 1017.02 1016.59 1016.18 1015.82 1015.57 1015.45 1015.46 1015.59 1015.80 1016.06 1016.35 1016.63 1016.90 1017.17 1017.45 1017.72 1017.99 1018.24 1018.43 1018.53
1022.30 1022.14 1021.92 1021.72 1021.57 1021.50 1021.49 1021.50 1021.48 1021.38 1021.16 1020.84 1020.43 1019.98 1019.54 1019.16 1018.85 1018.62 1018.45 1018.29 1018.09 1017.82 1017.47 1017.05 1016.58 1016.12 1015.72 1015.42 1015.25 1015.22 1015.32 1015.52 1015.79 1016.10 1016.44 1016.79 1017.15 1017.52 1017.89 1018.25 1018.56 1018.79 1018.91
Thickness
5816 5809 5803 5800 5797 5794 5791 5788 5786 5783 5781 5779 5777 5775 5774 5773 5772 5770 5768 5767 5765 5763 5761 5760 5758 5757 5757 5756 5755 5754 5753 5752 5751 5751 5751 5749 5748 5747 5745 5744 5743 5741 5739
5816 5807 5801 5798 5795 5792 5789 5786 5782 5780 5777 5775 5773 5771 5770 5768 5767 5766 5764 5763 5761 5760 5759 5757 5756 5755 5754 5753 5752 5751 5750 5750 5749 5749 5749 5747 5746 5744 5743 5742 5742 5739 5737
5813 5805 5799 5795 5792 5789 5786 5782 5779 5776 5774 5771 5769 5767 5766 5764 5763 5762 5760 5759 5758 5757 5755 5754 5753 5752 5751 5750 5749 5748 5748 5747 5747 5747 5747 5747 5744 5742 5741 5740 5739 5737 5735
5810 5803 5797 5792 5789 5785 5782 5779 5776 5773 5770 5767 5765 5763 5762 5761 5759 5758 5757 5756 5754 5753 5752 5751 5750 5749 5748 5748 5747 5746 5746 5746 5745 5746 5746 5746 5744 5740 5738 5737 5736 5734 5733
5806 5799 5792 5788 5785 5781 5778 5775 5772 5769 5766 5764 5761 5759 5758 5757 5755 5754 5753 5752 5751 5750 5749 5748 5747 5746 5746 5745 5744 5744 5744 5744 5744 5744 5746 5745 5742 5739 5736 5735 5734 5732 5730
5802 5795 5787 5784 5780 5777 5774 5770 5768 5765 5762 5760 5758 5756 5754 5753 5752 5751 5750 5749 5748 5747 5746 5745 5745 5744 5743 5742 5742 5741 5741 5742 5742 5745 5747 5744 5740 5737 5735 5734 5732 5730 5728
5800 5792 5784 5779 5776 5772 5769 5766 5763 5760 5757 5755 5753 5752 5750 5749 5748 5747 5746 5745 5744 5743 5743 5742 5742 5741 5741 5740 5740 5739 5739 5740 5741 5744 5746 5744 5740 5736 5734 5732 5730 5728 5727
5797 5788 5780 5775 5771 5768 5764 5761 5758 5755 5753 5750 5749 5747 5746 5745 5745 5744 5743 5742 5741 5740 5739 5739 5739 5738 5738 5738 5737 5737 5737 5737 5740 5743 5744 5742 5739 5736 5733 5731 5729 5727 5725
5791 5783 5777 5771 5766 5762 5759 5755 5753 5750 5748 5746 5744 5743 5742 5741 5741 5740 5739 5738 5738 5737 5736 5736 5736 5736 5735 5735 5735 5735 5735 5735 5736 5740 5742 5740 5737 5735 5733 5730 5728 5726 5724
5784 5778 5773 5767 5763 5758 5754 5751 5748 5746 5744 5742 5740 5739 5738 5737 5737 5737 5736 5735 5734 5734 5733 5733 5733 5733 5733 5732 5732 5732 5732 5733 5735 5738 5739 5738 5736 5734 5732 5729 5727 5725 5723
5776 5772 5769 5763 5758 5756 5752 5747 5744 5743 5740 5738 5736 5735 5734 5734 5734 5733 5733 5732 5732 5731 5731 5731 5731 5731 5730 5730 5730 5731 5731 5731 5735 5737 5737 5735 5733 5732 5730 5728 5726 5724 5722
5766 5765 5764 5760 5754 5752 5749 5743 5740 5739 5736 5735 5734 5732 5731 5731 5732 5731 5730 5728 5728 5728 5728 5728 5728 5728 5728 5729 5730 5729 5729 5731 5733 5736 5735 5733 5730 5729 5728 5727 5724 5722 5720
5760 5759 5757 5754 5749 5746 5743 5739 5736 5734 5732 5731 5730 5729 5728 5728 5728 5728 5727 5725 5725 5725 5725 5726 5726 5726 5728 5729 5729 5729 5729 5731 5734 5734 5733 5731 5728 5726 5726 5725 5723 5721 5719
5754 5751 5750 5748 5744 5740 5737 5735 5732 5730 5728 5727 5725 5725 5725 5724 5724 5724 5723 5722 5722 5723 5724 5724 5724 5725 5726 5727 5728 5729 5729 5730 5731 5732 5730 5729 5726 5725 5725 5723 5721 5719 5718
5748 5745 5744 5742 5738 5735 5732 5730 5728 5726 5724 5722 5721 5719 5719 5719 5718 5719 5718 5718 5719 5720 5720 5720 5720 5722 5723 5725 5726 5727 5727 5727 5727 5727 5728 5726 5724 5723 5722 5721 5719 5717 5716
5741 5739 5738 5736 5732 5730 5727 5725 5723 5720 5718 5715 5714 5713 5712 5713 5713 5713 5713 5713 5713 5714 5715 5715 5716 5718 5719 5720 5721 5722 5722 5723 5723 5722 5722 5722 5721 5720 5719 5718 5716 5715 5714
5734 5732 5732 5730 5727 5724 5722 5720 5718 5715 5713 5710 5709 5708 5707 5706 5706 5707 5706 5707 5707 5709 5710 5710 5711 5713 5714 5714 5715 5716 5717 5717 5717 5717 5717 5718 5717 5716 5715 5714 5713 5712 5711
5728 5726 5725 5725 5721 5718 5716 5714 5712 5710 5708 5706 5704 5702 5700 5700 5700 5700 5701 5702 5702 5703 5704 5704 5705 5705 5706 5707 5708 5710 5711 5712 5713 5712 5712 5713 5712 5712 5711 5710 5709 5709 5709
5721 5719 5717 5716 5714 5712 5710 5707 5706 5704 5702 5700 5697 5696 5694 5694 5693 5693 5695 5695 5696 5697 5698 5698 5698 5698 5698 5699 5701 5704 5706 5707 5708 5708 5708 5708 5707 5707 5707 5706 5705 5705 5705
5715 5712 5710 5708 5707 5706 5704 5701 5699 5697 5696 5693 5691 5689 5688 5687 5686 5687 5688 5689 5690 5690 5690 5690 5690 5691 5692 5693 5695 5697 5699 5701 5702 5701 5701 5701 5701 5701 5701 5701 5700 5700 5700
5708 5706 5703 5701 5699 5698 5696 5694 5691 5689 5688 5687 5684 5682 5681 5680 5679 5679 5680 5681 5682 5682 5682 5683 5682 5683 5684 5686 5685 5686 5690 5695 5695 5695 5695 5694 5694 5694 5694 5694 5694 5693 5693
5701 5699 5696 5694 5692 5691 5689 5687 5685 5683 5682 5680 5678 5675 5674 5673 5672 5672 5672 5673 5674 5674 5674 5674 5674 5674 5676 5679 5677 5675 5676 5680 5684 5687 5687 5687 5686 5687 5687 5687 5686 5686 5686
5695 5692 5689 5686 5685 5684 5683 5682 5680 5677 5674 5672 5670 5668 5667 5666 5665 5664 5664 5664 5665 5665 5665 5666 5666 5666 5666 5669 5671 5668 5665 5666 5669 5674 5676 5677 5677 5677 5678 5678 5679 5679 5679
5689 5686 5682 5679 5677 5676 5675 5674 5671 5667 5664 5662 5662 5661 5660 5658 5657 5656 5655 5655 5655 5656 5657 5657 5658 5657 5658 5659 5662 5663 5663 5662 5659 5659 5662 5665 5667 5667 5668 5669 5670 5670 5670
5684 5680 5676 5672 5669 5668 5667 5666 5663 5660 5657 5656 5655 5653 5652 5650 5648 5647 5646 5646 5646 5646 5647 5648 5648 5648 5649 5650 5651 5653 5654 5655 5655 5651 5650 5652 5655 5657 5659 5659 5660 5661 5662
5677 5674 5669 5665 5662 5661 5659 5657 5654 5651 5648 5646 5645 5643 5642 5640 5639 5637 5636 5636 5636 5636 5637 5638 5639 5640 5641 5642 5643 5644 5644 5645 5645 5645 5644 5644 5644 5646 5648 5650 5651 5652 5653